x

8452944 - Conimicut Light, Ri (cptr1) Weather Station

2:30am - Tue 27th Jan 2015 All times are EST. -5 hours from GMT.

  • Wind
    33mph, 44mph gusts
  • Sea Temp 35°f
  • Air Temp 19°f
  • Sea Pressure 1000.9mb
  • 8452944 - Conimicut Light, Ri
  • 8452944 - Conimicut Light, Ri

More Historic Weather Station data

Upgrade to MSW Pro to gain access to the past 30 days of data for over 8000 Wavebouys and Weather Stations around the globe.

Join Pro

Comparision Forecast

View Surf forecast
   
Tue 01/27 2:30am 33 44 mph 1000.9mb 35f 19f
2:24am 39 44 mph 1001.1mb 35f 19f
2:12am 33 45 mph 1001.4mb 35f 19f
2:06am 36 43 mph 1001.3mb 35f 19f
2:00am 32 47 mph 1001.3mb 35f 19f
1:54am 36 53 mph 1001.4mb 35f 19f
1:42am 34 43 mph 1001.3mb 35f 19f
1:36am 31 45 mph 1001.7mb 35f 20f
1:30am 30 40 mph 1001.7mb 36f 20f
1:12am 33 43 mph 1001.9mb 36f 21f
1:00am 33 41 mph 1002.3mb 36f 22f
12:54am 33 45 mph 1002.4mb 36f 22f
12:42am 33 40 mph 1002.8mb 36f 22f
12:36am 30 40 mph 1002.8mb 36f 23f
12:30am 31 43 mph 1003mb 36f 22f
12:24am 32 41 mph 1003mb 36f 23f
12:12am 36 41 mph 1003.1mb 36f 23f
12:06am 33 45 mph 1003.6mb 36f 24f
12:00am 31 44 mph 1003.8mb 36f 26f
Mon 01/26 11:54pm 30 39 mph 1003.9mb 36f 28f
11:42pm 29 44 mph 1004.3mb 36f 28f
11:30pm 33 39 mph 1005mb 36f 28f
11:24pm 29 41 mph 1005.3mb 36f 28f
11:18pm 36 43 mph 1005.3mb 36f 29f
11:12pm 30 46 mph 1005.6mb 36f 29f
11:06pm 29 40 mph 1005.6mb 36f 29f
11:00pm 28 39 mph 1005.8mb 36f 29f
10:48pm 29 43 mph 1006mb 35f 29f
10:42pm 33 40 mph 1006.2mb 35f 29f
10:36pm 28 34 mph 1006.8mb 35f 29f
10:30pm 30 41 mph 1007.2mb 35f 29f
10:24pm 30 43 mph 1007.3mb 35f 29f
10:18pm 31 41 mph 1007.2mb 35f 29f
10:06pm 24 37 mph 1007.5mb 35f 29f
9:48pm 28 37 mph 1008.1mb 35f 28f
9:42pm 26 37 mph 1008.5mb 35f 28f
9:30pm 24 33 mph 1009.1mb 35f 28f
9:24pm 23 30 mph 1009.3mb 35f 28f
9:18pm 26 34 mph 1009.6mb 35f 28f
9:06pm 23 30 mph 1009.9mb 35f 29f
9:00pm 23 31 mph 1010.2mb 35f 29f
8:48pm  -  mph 1010.6mb 35f 29f
8:42pm  -  mph 1010.6mb 35f 29f
8:30pm 21 31 mph 1011.1mb 35f 29f
8:24pm 18 24 mph 1011.5mb 35f 28f
8:18pm 15 22 mph 1012mb 35f 28f
7:54pm 22 26 mph 1012.1mb 35f 28f
7:36pm 17 26 mph 1012.7mb 36f 28f
7:30pm 20 26 mph 1012.8mb 36f 28f
7:24pm 20 26 mph 1013mb 36f 28f
7:18pm 17 24 mph 1013.4mb 36f 29f
7:12pm 17 24 mph 1013.6mb 36f 28f
7:06pm 17 23 mph 1013.7mb 36f 28f
7:00pm 16 22 mph 1013.5mb 36f 28f
6:54pm 16 23 mph 1013.4mb 36f 28f
6:48pm 18 24 mph 1013.5mb 36f 28f
6:42pm 17 22 mph 1013.6mb 36f 28f
6:36pm 17 23 mph 1013.6mb 36f 28f
6:30pm 18 24 mph 1013.6mb 36f 28f
6:24pm 17 23 mph 1013.5mb 36f 28f
6:18pm 18 24 mph 1013.6mb 36f 28f
6:12pm 17 21 mph 1013.6mb 36f 28f
6:06pm 17 25 mph 1013.7mb 36f 28f
6:00pm 18 22 mph 1013.6mb 35f 28f
5:54pm 16 25 mph 1013.7mb 36f 28f
5:48pm 16 23 mph 1013.9mb 36f 28f
5:42pm 16 22 mph 1014.2mb 36f 28f
5:36pm 18 22 mph 1014.2mb 36f 28f
5:30pm 15 23 mph 1014.4mb 36f 28f
5:24pm 20 24 mph 1014.4mb 36f 28f
5:18pm 16 21 mph 1014.6mb 35f 28f
5:12pm 16 20 mph 1014.6mb 35f 28f
5:06pm 14 21 mph 1014.6mb 35f 28f
5:00pm 15 20 mph 1014.6mb 35f 28f
4:54pm 11 17 mph 1014.8mb 35f 28f
4:48pm 14 17 mph 1014.5mb 35f 28f
4:42pm 14 16 mph 1014.5mb 35f 28f
4:36pm 15 17 mph 1014.5mb 35f 28f
4:30pm 13 16 mph 1014.4mb 35f 28f
4:24pm 11 16 mph 1014.4mb 35f 28f
4:18pm 13 17 mph 1014.5mb 35f 28f
4:12pm 14 17 mph 1014.6mb 35f 28f
4:06pm 11 16 mph 1014.8mb 35f 28f
4:00pm 11 15 mph 1014.7mb 35f 28f
3:54pm 11 15 mph 1014.8mb 35f 28f
3:48pm 10 14 mph 1014.8mb 35f 28f
3:42pm 10 14 mph 1014.7mb 35f 28f
3:36pm 9 11 mph 1014.9mb 35f 28f
3:30pm 9 11 mph 1014.9mb 35f 27f
3:24pm 10 13 mph 1014.8mb 35f 27f
3:18pm 10 14 mph 1014.8mb 35f 27f
3:12pm 11 14 mph 1014.9mb 35f 27f
3:06pm 11 14 mph 1014.9mb 35f 27f
3:00pm 11 14 mph 1014.9mb 35f 26f
2:54pm 13 15 mph 1015mb 35f 26f
2:48pm 11 14 mph 1015.3mb 35f 26f
2:42pm 13 15 mph 1015.3mb 35f 26f
2:36pm 13 15 mph 1015.3mb 35f 26f
2:30pm 13 15 mph 1015.5mb 35f 26f
2:24pm 11 14 mph 1015.5mb 35f 26f
2:18pm 13 16 mph 1015.5mb 35f 26f
2:12pm 14 16 mph 1015.3mb 35f 25f
2:06pm 14 16 mph 1015.4mb 35f 25f
2:00pm 13 16 mph 1015.5mb 35f 25f
1:54pm 14 16 mph 1015.3mb 35f 25f
1:48pm 14 16 mph 1015.6mb 35f 25f
1:42pm 14 15 mph 1015.6mb 35f 25f
1:36pm 14 17 mph 1015.8mb 35f 24f
1:30pm 13 17 mph 1016mb 36f 24f
1:24pm 13 17 mph 1016.2mb 36f 24f
1:18pm 15 18 mph 1016.1mb 36f 24f
1:12pm 15 20 mph 1016mb 36f 24f
1:06pm 16 20 mph 1016.2mb 36f 23f
1:00pm 14 22 mph 1016.4mb 36f 23f
12:54pm 14 21 mph 1016.4mb 36f 23f
12:48pm 14 17 mph 1016.6mb 36f 23f
12:42pm 13 17 mph 1016.8mb 36f 22f
12:36pm 14 17 mph 1016.7mb 36f 22f
12:30pm 14 17 mph 1016.7mb 36f 22f
12:24pm 14 17 mph 1016.9mb 36f 22f
12:18pm 15 20 mph 1017.1mb 36f 22f
12:12pm 15 17 mph 1017.3mb 36f 22f
12:06pm 14 20 mph 1017.6mb 36f 22f
12:00pm 17 20 mph 1017.7mb 36f 21f
11:54am 16 20 mph 1017.7mb 36f 21f
11:48am 14 18 mph 1017.8mb 36f 21f
11:42am 14 17 mph 1018mb 36f 21f
11:24am 15 18 mph 1018.2mb 36f 21f
11:12am 13 16 mph 1018.5mb 36f 21f
11:06am 13 15 mph 1018.8mb 36f 20f
11:00am 11 15 mph 1019mb 36f 21f
10:54am 11 15 mph 1019.1mb 36f 20f
10:42am 14 16 mph 1018.9mb 36f 20f
10:30am 11 16 mph 1019.2mb 36f 20f
10:24am 13 16 mph 1019.2mb 36f 20f
10:18am 9 14 mph 1019.2mb 36f 19f
10:12am 14 17 mph 1019.3mb 36f 19f
10:06am 13 16 mph 1019.2mb 36f 19f
10:00am 13 17 mph 1019.1mb 36f 19f
9:54am 15 17 mph 1019.1mb 36f 19f
9:48am 14 18 mph 1019.1mb 36f 19f
9:42am 15 17 mph 1019.1mb 36f 19f
9:36am 14 17 mph 1019.2mb 36f 19f
9:30am 14 17 mph 1019.1mb 36f 19f
9:24am 13 16 mph 1019.2mb 36f 18f
9:18am 14 16 mph 1019.2mb 36f 18f
9:12am 13 17 mph 1019.2mb 36f 18f
9:06am 14 17 mph 1019.2mb 36f 18f
9:00am 13 17 mph 1019.3mb 36f 18f
8:54am 14 20 mph 1019.3mb 36f 18f
8:48am 13 15 mph 1019.3mb 36f 18f
8:42am 11 15 mph 1019.3mb 36f 18f
8:36am 14 15 mph 1019.4mb 36f 18f
8:30am 13 17 mph 1019.5mb 36f 18f
8:24am 15 16 mph 1019.5mb 36f 18f
8:18am 13 15 mph 1019.5mb 36f 18f
8:12am 10 13 mph 1019.5mb 36f 18f
8:06am 13 15 mph 1019.6mb 36f 18f
8:00am 14 17 mph 1019.6mb 36f 17f
7:54am 15 17 mph 1019.6mb 36f 18f
7:48am 15 16 mph 1019.6mb 36f 18f
7:42am 14 16 mph 1019.6mb 36f 18f
7:36am 11 15 mph 1019.6mb 36f 18f
7:30am 11 15 mph 1019.7mb 36f 18f
7:24am 13 16 mph 1019.7mb 36f 18f
7:18am 13 16 mph 1019.5mb 36f 18f
7:12am 14 17 mph 1019.5mb 36f 18f
7:06am 13 17 mph 1019.6mb 36f 18f
7:00am 13 15 mph 1019.5mb 36f 18f
6:54am 11 16 mph 1019.5mb 36f 19f
6:48am 14 16 mph 1019.4mb 36f 18f
6:42am 14 16 mph 1019.5mb 36f 18f
6:36am 11 15 mph 1019.4mb 36f 18f
6:30am 13 15 mph 1019.4mb 36f 18f
6:24am 14 16 mph 1019.5mb 36f 19f
6:18am 11 15 mph 1019.5mb 36f 19f
6:12am 11 16 mph 1019.5mb 36f 19f
6:06am 14 16 mph 1019.4mb 36f 19f
6:00am 11 16 mph 1019.5mb 36f 19f
5:54am 14 16 mph 1019.4mb 36f 19f
5:48am 13 15 mph 1019.4mb 36f 19f
5:42am 10 15 mph 1019.3mb 36f 19f
5:36am 13 17 mph 1019mb 36f 19f
5:30am 14 17 mph 1018.9mb 36f 19f
5:24am 16 18 mph 1018.8mb 36f 19f
5:18am 14 17 mph 1019.1mb 36f 20f
5:12am 13 16 mph 1019mb 36f 20f
5:06am 15 20 mph 1018.9mb 36f 20f
5:00am 8 11 mph 1019mb 36f 20f
4:54am 13 15 mph 1018.6mb 36f 20f
4:48am 13 15 mph 1018.4mb 36f 20f
4:42am 10 14 mph 1018.7mb 36f 20f
4:30am 11 14 mph 1018.6mb 36f 20f
4:24am 10 14 mph 1018.7mb 36f 20f
4:18am 11 15 mph 1018.5mb 36f 21f
4:12am 13 16 mph 1018.4mb 36f 21f
4:06am 13 15 mph 1018.4mb 36f 21f
4:00am 13 15 mph 1018.4mb 36f 21f
3:54am 14 17 mph 1018.3mb 36f 21f
3:48am 14 17 mph 1018.3mb 36f 21f
3:42am 14 16 mph 1018.3mb 36f 22f
3:36am 13 16 mph 1018.4mb 36f 22f
3:30am 14 16 mph 1018.2mb 36f 22f
3:24am 14 16 mph 1018.3mb 36f 22f
3:18am 14 16 mph 1018.2mb 36f 22f
3:12am 13 14 mph 1018.3mb 36f 22f
3:06am 10 13 mph 1018.3mb 36f 23f
3:00am 9 13 mph 1018.3mb 36f 23f
2:54am 11 16 mph 1018.2mb 36f 23f
2:48am 14 20 mph 1018.1mb 36f 23f
2:42am 18 21 mph 1017.9mb 36f 23f
2:36am 13 18 mph 1017.8mb 36f 23f
2:30am 13 15 mph 1017.7mb 36f 23f
2:24am 14 17 mph 1017.7mb 36f 23f
2:18am 15 18 mph 1017.7mb 36f 23f
2:12am 11 18 mph 1017.8mb 36f 23f
2:06am 11 15 mph 1017.7mb 36f 23f
2:00am 14 16 mph 1017.6mb 36f 24f
1:54am 15 18 mph 1017.6mb 36f 23f
1:48am 16 17 mph 1017.6mb - 24f
1:42am 16 21 mph 1017.6mb - 24f
1:36am 14 18 mph 1017.4mb - 24f
1:30am 15 18 mph 1017.2mb 36f 24f
1:24am 14 16 mph 1017.1mb 36f 24f
1:12am 11 14 mph 1017.3mb 36f 24f
1:06am 11 17 mph 1017.3mb 36f 24f
1:00am 15 17 mph 1017.1mb 36f 24f
12:54am 11 14 mph 1017.1mb 36f 25f
12:48am 13 15 mph 1017.1mb 36f 25f
12:42am 11 17 mph 1017.2mb 36f 25f
12:36am 15 20 mph 1017mb 36f 25f
12:30am 14 18 mph 1016.7mb 36f 25f
12:24am 16 18 mph 1016.6mb 36f 25f
12:18am 15 16 mph 1016.7mb 36f 25f
12:12am 14 16 mph 1016.8mb 36f 24f
12:06am 14 16 mph 1016.7mb 36f 24f
12:00am 15 17 mph 1016.8mb 36f 24f
Sun 01/25 11:54pm 15 16 mph 1016.9mb 36f 24f
11:48pm 13 15 mph 1016.9mb 36f 24f
11:42pm 11 15 mph 1017mb 36f 25f
11:36pm 13 14 mph 1016.9mb 36f 25f
11:30pm 11 14 mph 1016.8mb 36f 25f
11:24pm 11 15 mph 1016.8mb 36f 25f
11:18pm 10 13 mph 1016.6mb 36f 25f
11:12pm 10 14 mph 1016.4mb 37f 25f
11:06pm 9 13 mph 1016.2mb 37f 26f
11:00pm 10 14 mph 1016.1mb 37f 26f
10:54pm 13 14 mph 1016.1mb 37f 25f
10:48pm 13 14 mph 1015.9mb 37f 26f
10:42pm 11 14 mph 1015.7mb 37f 26f
10:36pm 13 15 mph 1015.5mb 37f 26f
10:30pm 10 13 mph 1015.5mb 37f 26f
10:24pm 11 15 mph 1015.5mb 37f 26f
10:18pm 13 15 mph 1015.3mb 37f 26f
10:12pm 14 16 mph 1015.2mb 37f 26f
10:06pm 13 15 mph 1015.2mb 37f 26f
10:00pm 15 18 mph 1015mb 37f 27f
9:54pm 16 18 mph 1014.9mb 37f 27f
9:48pm 16 21 mph 1014.9mb 37f 27f
9:42pm 15 20 mph 1014.6mb 37f 27f
9:36pm 17 20 mph 1014.4mb 37f 27f
9:30pm 16 18 mph 1014.5mb 37f 27f
9:24pm 15 18 mph 1014.4mb 37f 27f
9:18pm 14 16 mph 1014.3mb 37f 27f
9:12pm 13 15 mph 1014.3mb 37f 28f
9:06pm 10 15 mph 1014.4mb 37f 28f
9:00pm 11 14 mph 1014.2mb 37f 28f
8:54pm 13 17 mph 1014.1mb 37f 28f
8:48pm 13 18 mph 1013.9mb 37f 28f
8:42pm 16 20 mph 1013.8mb 37f 28f
8:36pm 15 16 mph 1013.8mb 37f 28f
8:30pm 13 16 mph 1013.8mb 37f 28f
8:24pm 14 20 mph 1013.7mb 37f 29f
8:18pm 16 18 mph 1013.4mb 37f 29f
8:12pm 14 16 mph 1013.3mb 37f 29f
8:06pm 14 16 mph 1013.3mb 37f 29f
8:00pm 15 17 mph 1013.1mb 37f 29f
7:54pm 15 16 mph 1013.2mb 37f 29f
7:48pm 14 18 mph 1013.2mb 37f 29f
7:42pm 16 17 mph 1013.1mb 37f 29f
7:36pm 14 16 mph 1013.1mb 37f 29f
7:30pm 13 15 mph 1013.2mb 37f 30f
7:24pm 14 16 mph 1013.1mb 37f 30f
7:18pm 14 16 mph 1012.9mb 37f 30f
7:12pm 15 17 mph 1012.6mb 37f 30f
7:06pm 13 15 mph 1012.5mb 37f 30f
7:00pm 14 15 mph 1012.4mb 37f 31f
6:54pm 14 17 mph 1012.2mb 37f 31f
6:48pm 13 17 mph 1012.3mb 37f 31f
6:42pm 14 17 mph 1012.2mb 37f 31f
6:36pm 16 21 mph 1012mb 37f 31f
6:30pm 16 20 mph 1011.9mb 37f 31f
6:24pm 16 17 mph 1011.7mb 37f 31f
6:18pm 16 18 mph 1011.5mb 37f 31f
6:12pm 15 20 mph 1011.1mb 37f 32f
6:06pm 16 18 mph 1010.9mb 37f 32f
6:00pm 17 21 mph 1010.9mb 37f 32f
5:54pm 18 22 mph 1010.5mb 37f 32f
5:48pm 17 21 mph 1010.1mb 37f 32f
5:42pm 17 22 mph 1010.1mb 37f 32f
5:36pm 20 26 mph 1009.7mb 37f 32f
5:30pm 20 22 mph 1009.5mb 37f 32f
5:24pm 17 22 mph 1009.6mb 37f 32f
5:18pm 14 20 mph 1009.5mb 37f 32f
5:12pm 16 22 mph 1009.4mb 37f 33f
5:06pm 16 23 mph 1009.4mb 37f 33f
5:00pm 17 22 mph 1009.2mb 37f 33f
4:54pm 18 24 mph 1009.1mb 37f 33f
4:48pm 18 23 mph 1008.9mb 37f 33f
4:42pm 15 20 mph 1008.9mb 37f 33f
4:36pm 16 21 mph 1008.6mb 37f 33f
4:30pm 16 22 mph 1008.5mb 37f 33f
4:24pm 22 24 mph 1008.3mb 37f 33f
4:18pm 21 24 mph 1008.1mb 37f 34f
4:12pm 24 28 mph 1008mb 37f 34f
4:06pm 21 23 mph 1007.9mb 37f 34f
4:00pm 25 30 mph 1007.6mb 37f 34f
3:54pm 21 29 mph 1007.4mb 37f 34f
3:48pm 28 31 mph 1007.2mb 37f 34f
3:42pm 26 30 mph 1007mb 37f 34f
3:36pm 24 28 mph 1007.2mb 37f 35f
3:30pm 20 23 mph 1007mb 37f 35f
3:24pm 22 28 mph 1006.9mb 37f 35f
3:18pm 25 30 mph 1006.9mb 37f 35f
3:12pm 26 30 mph 1006.8mb 37f 35f
3:06pm 25 28 mph 1006.7mb 37f 35f
3:00pm 21 25 mph 1006.9mb 37f 35f
2:54pm 24 29 mph 1007mb 37f 35f
2:48pm 23 28 mph 1006.7mb 37f 35f
2:42pm 20 25 mph 1006.5mb 37f 36f
2:36pm 23 29 mph 1006.2mb 37f 36f
2:30pm 21 25 mph 1006mb 37f 36f
2:24pm 21 22 mph 1006mb 37f 36f
2:18pm 17 26 mph 1005.7mb 37f 36f
2:12pm 20 24 mph 1005.5mb 37f 36f
2:06pm 22 28 mph 1005.4mb 37f 36f
2:00pm 23 26 mph 1005.2mb 37f 36f
1:54pm 21 26 mph 1005.1mb 37f 36f
1:48pm 22 28 mph 1005mb 37f 36f
1:42pm 21 25 mph 1004.8mb 37f 37f
1:36pm 21 26 mph 1004.7mb 37f 37f
1:30pm 20 26 mph 1004.7mb 37f 36f
1:24pm 24 28 mph 1004.4mb 37f 36f
1:18pm 21 28 mph 1004.4mb 37f 36f
1:12pm 25 30 mph 1004.1mb 37f 36f
1:06pm 21 26 mph 1004.1mb 37f 36f
1:00pm 21 28 mph 1004mb 37f 37f
12:54pm 21 32 mph 1003.9mb 37f 37f
12:48pm 22 29 mph 1003.9mb 37f 37f
12:42pm 18 26 mph 1004mb 37f 37f
12:36pm 24 30 mph 1004mb 37f 37f
12:30pm 29 33 mph 1003.7mb 37f 37f
12:24pm 33 38 mph 1003.7mb 37f 37f
12:18pm 26 32 mph 1003.8mb 37f 37f
12:12pm 25 30 mph 1004mb 37f 37f
12:06pm 23 31 mph 1004.1mb 37f 37f
12:00pm 26 34 mph 1004.1mb 37f 37f
11:54am 29 31 mph 1004mb 37f 37f
11:48am 25 33 mph 1004mb 37f 37f
11:42am 29 36 mph 1003.9mb 37f 37f
11:36am 22 31 mph 1004mb 37f 37f
11:30am 30 33 mph 1003.6mb 37f 37f
11:24am 28 34 mph 1004.1mb 37f 37f
11:18am 22 28 mph 1004mb 37f 37f
11:12am 23 26 mph 1004.1mb 37f 37f
11:06am 23 26 mph 1003.9mb 37f 37f
11:00am 21 24 mph 1003.9mb 37f 37f
10:54am 18 23 mph 1003.9mb 37f 38f
10:48am 15 23 mph 1003.9mb 37f 38f
10:42am 18 23 mph 1004mb 37f 37f
10:36am 13 17 mph 1003.8mb 37f 37f
10:30am 15 21 mph 1003.7mb 37f 37f
10:24am 17 20 mph 1003.7mb 37f 37f
10:18am 13 16 mph 1003.8mb 37f 37f
10:12am 15 23 mph 1003.8mb 37f 37f
10:06am 14 21 mph 1003.7mb 37f 37f
10:00am 16 22 mph 1003.8mb 37f 37f
9:54am 18 21 mph 1003.6mb 37f 37f
9:48am 17 21 mph 1003.6mb 37f 36f
9:42am 15 23 mph 1003.4mb 37f 36f
9:36am 17 26 mph 1003.1mb 37f 36f
9:30am 17 23 mph 1003.1mb 37f 36f
9:24am 15 22 mph 1003mb 37f 36f
9:18am 14 22 mph 1002.8mb 37f 35f
9:12am 14 23 mph 1002.8mb 37f 35f
9:06am 16 22 mph 1002.8mb 37f 35f
9:00am 16 20 mph 1002.7mb 37f 35f
8:54am 16 21 mph 1002.5mb 37f 35f
8:48am 18 22 mph 1002.5mb 37f 35f
8:42am 17 21 mph 1002.4mb 37f 34f
8:36am 17 21 mph 1002.3mb 37f 34f
8:30am 14 18 mph 1002.1mb 37f 34f
8:24am 14 16 mph 1002mb 37f 34f
8:18am 13 17 mph 1001.9mb 37f 34f
8:12am 14 17 mph 1001.9mb 37f 34f
8:06am 14 17 mph 1001.8mb 37f 33f
8:00am 15 18 mph 1001.8mb 37f 33f
7:54am 15 21 mph 1001.6mb 37f 33f
7:48am 16 20 mph 1001.6mb 37f 33f
7:42am 14 18 mph 1001.4mb 37f 33f
7:36am 14 18 mph 1001.3mb 37f 33f
7:30am 14 17 mph 1001.1mb 37f 33f
7:24am 15 20 mph 1001mb 37f 32f
7:18am 16 18 mph 1001mb 37f 32f
7:12am 16 18 mph 1000.8mb 37f 32f
7:06am 15 17 mph 1000.7mb 37f 32f
7:00am 15 17 mph 1000.6mb 37f 32f
6:54am 15 17 mph 1000.4mb 37f 32f
6:48am 16 20 mph 1000.2mb 37f 32f
6:42am 16 21 mph 1000.1mb 37f 32f
6:36am 17 20 mph 1000.1mb 37f 32f
6:30am 16 22 mph 1000mb 37f 32f
6:24am 17 22 mph 999.8mb 37f 32f
6:18am 18 23 mph 999.8mb 37f 32f
6:12am 18 24 mph 999.6mb 37f 32f
6:06am 22 29 mph 999.4mb 37f 32f
6:00am 22 30 mph 999.3mb 37f -
5:54am 24 31 mph 999.3mb 37f -
5:48am 23 29 mph 999.1mb 37f 33f
5:42am 24 30 mph 998.9mb 37f 33f
5:36am 25 31 mph 998.8mb 37f 33f
5:30am 28 33 mph 998.7mb 37f 33f
5:24am 26 32 mph 998.5mb 37f 33f
5:18am 28 31 mph 998.5mb 37f 33f
5:12am 25 31 mph 998.3mb 37f 33f
5:06am 25 31 mph 998.2mb 37f 33f
5:00am 23 31 mph 998.1mb 37f 33f
4:54am 22 28 mph 998mb 37f 34f
4:48am 22 29 mph 998mb 37f 33f
4:42am 17 23 mph 997.8mb 37f 34f
4:36am 17 22 mph 997.8mb 37f 34f
4:30am 18 22 mph 997.7mb 37f 34f
4:24am 17 23 mph 997.7mb 37f 33f
4:18am 17 22 mph 997.6mb 37f 33f
4:06am 18 23 mph 997.5mb 37f 33f
4:00am 16 23 mph 997.5mb 37f 33f
3:54am 18 22 mph 997.4mb 37f 33f
3:48am 18 23 mph 997.3mb 37f 33f
3:42am 18 22 mph 997.1mb 37f 33f
3:36am 20 24 mph 997mb 37f 33f
3:30am 16 22 mph 996.9mb 37f 33f
3:24am 18 26 mph 996.8mb 37f 33f
3:18am 20 25 mph 996.8mb 37f 33f
3:12am 21 25 mph 996.6mb 37f 33f
3:06am 22 26 mph 996.5mb 37f 33f
3:00am 22 25 mph 996.4mb 37f 33f
2:54am 22 32 mph 996.4mb 37f 33f
2:48am 24 29 mph 996.2mb 37f 33f
2:42am 20 24 mph 996.2mb 37f 33f
2:36am 21 24 mph 996.3mb 37f 33f
2:30am 20 23 mph 996.4mb 37f 32f
2:24am 17 24 mph 996.2mb 37f 32f
2:18am 15 18 mph 996mb 37f 32f
2:12am 13 16 mph 996mb 37f 32f
2:06am 15 18 mph 996mb 37f 32f
2:00am 14 17 mph 995.9mb 37f 32f
1:54am 11 16 mph 995.6mb 37f 32f
1:48am 13 18 mph 995.4mb 37f -
1:42am 14 17 mph 995.3mb 37f -
1:36am 14 16 mph 995.2mb 37f -
1:30am 13 17 mph 995.1mb 37f 32f
1:24am 14 16 mph 995mb 37f 33f
1:18am 14 20 mph 994.8mb 37f 33f
1:12am 14 18 mph 994.8mb 37f 33f
1:06am 14 18 mph 994.7mb 37f 33f
1:00am 13 15 mph 994.5mb 37f 33f
12:54am 13 20 mph 994.4mb 37f 33f
12:48am 13 17 mph 994.3mb 37f 33f
12:42am 10 16 mph 994.1mb 37f 33f
12:36am 11 14 mph 994mb 37f 33f
12:30am 11 14 mph 994mb 37f 33f
12:24am 10 13 mph 993.9mb 37f 33f
12:18am 11 15 mph 993.8mb 37f 33f
12:12am 13 15 mph 993.7mb 37f 33f
12:06am 16 18 mph 993.4mb 37f 33f
12:00am 11 15 mph 993.2mb 37f 33f
Sat 01/24 11:54pm 14 18 mph 993.2mb 37f 33f
11:48pm 14 17 mph 993mb 37f 34f
11:42pm 14 17 mph 992.9mb 37f 34f
11:36pm 15 16 mph 992.8mb 37f 34f
11:30pm 13 14 mph 992.9mb 37f 34f
11:24pm 13 15 mph 992.8mb 37f 34f
11:18pm 11 15 mph 992.6mb 37f 34f
11:12pm 14 17 mph 992.5mb 37f 34f
11:06pm 14 20 mph 992.4mb 37f 34f
11:00pm 15 17 mph 992.5mb 37f 35f
10:54pm 15 20 mph 992.4mb 37f 35f
10:48pm 16 20 mph 992.2mb 37f 35f
10:42pm 15 17 mph 992.1mb 37f 35f
10:36pm 14 17 mph 992.1mb 37f 35f
10:30pm 18 21 mph 992.1mb 37f 35f
10:24pm 18 24 mph 992mb 37f 35f
10:18pm 18 22 mph 991.9mb 37f 35f
10:12pm 15 17 mph 991.7mb 37f 35f
10:06pm 15 17 mph 991.5mb 37f 35f
10:00pm 16 21 mph 991.4mb 37f 35f
9:54pm 15 20 mph 991.3mb 37f 35f
9:48pm 15 17 mph 991.2mb 37f 35f
9:42pm 14 16 mph 991.3mb 37f 35f
9:36pm 14 16 mph 991.4mb 37f 35f
9:30pm 14 15 mph 991.4mb 37f 35f
9:24pm 11 15 mph 991.4mb 37f 35f
9:18pm 13 14 mph 991.2mb 37f 35f
9:12pm 10 13 mph 991mb 37f 35f
9:06pm 11 14 mph 990.8mb 37f 34f
9:00pm 14 16 mph 990.6mb 37f 34f
8:54pm 15 20 mph 990.5mb 37f 35f
8:48pm 18 22 mph 990.4mb 37f 35f
8:42pm 18 21 mph 990.3mb 37f 34f
8:36pm 17 20 mph 990.2mb 37f 34f
8:30pm 17 20 mph 990.2mb 37f 34f
8:24pm 15 17 mph 990.2mb 37f 34f
8:18pm 13 15 mph 990.2mb 37f 34f
8:12pm 15 18 mph 989.9mb 37f 34f
8:06pm 16 18 mph 989.9mb 37f 33f
8:00pm 13 15 mph 990mb 37f 33f
7:54pm 13 15 mph 990mb 37f 33f
7:48pm 14 15 mph 989.9mb 37f 33f
7:42pm 15 17 mph 989.8mb 37f 33f
7:36pm 16 18 mph 989.6mb 37f 33f
7:30pm 15 18 mph 989.6mb 37f 33f
7:24pm 18 22 mph 989.6mb 37f 33f
7:18pm 20 21 mph 989.4mb 37f 33f
7:12pm 16 21 mph 989.5mb 37f 33f
7:06pm 17 20 mph 989.6mb 37f 33f
7:00pm 17 21 mph 989.4mb 37f 33f
6:54pm 16 20 mph 989.2mb 37f 33f
6:48pm 16 20 mph 989mb 37f 33f
6:42pm 17 21 mph 988.8mb 37f 33f
6:36pm 18 22 mph 988.8mb 37f 33f
6:30pm 17 21 mph 988.6mb 37f 33f
6:24pm 20 22 mph 988.5mb 37f 33f
6:18pm 21 23 mph 988.5mb 37f 34f
6:12pm 20 23 mph 988.4mb 37f 34f
6:06pm 22 25 mph 988.2mb 37f 33f
6:00pm 22 26 mph 988.2mb 37f 33f
5:54pm 22 26 mph 988.2mb 37f 34f
5:48pm 23 25 mph 987.9mb 37f 34f
5:42pm 23 28 mph 987.9mb 37f 34f
5:36pm 24 26 mph 987.8mb 37f 34f
5:30pm 24 28 mph 987.6mb 37f 34f
5:24pm 21 26 mph 987.3mb 37f 34f
5:18pm 23 26 mph 986.7mb 37f 34f
5:12pm 22 25 mph 986.5mb 37f 33f
5:06pm 21 23 mph 986.3mb 37f 34f
5:00pm 21 24 mph 986mb 37f 33f
4:54pm 22 26 mph 986mb 37f 34f
4:48pm 23 26 mph 985.8mb 37f 34f
4:42pm 21 24 mph 986mb 37f 33f
4:36pm 21 25 mph 985.8mb 37f 33f
4:30pm 20 23 mph 986mb 37f 33f
4:24pm 18 24 mph 986.7mb 37f 34f
4:18pm 18 23 mph 986.8mb 37f 34f
4:12pm 18 26 mph 986.8mb 37f 33f
4:06pm 22 24 mph 986.7mb 37f 33f
4:00pm 21 25 mph 987.1mb 37f 33f
3:54pm 20 26 mph 987.5mb 37f 34f
3:48pm 22 28 mph 987.3mb 37f 34f
3:42pm 21 29 mph 987.3mb 37f 34f
3:36pm 22 28 mph 987.9mb 37f 34f
3:30pm 24 28 mph 987.7mb 37f 34f
3:24pm 24 29 mph 988.2mb 37f 34f
3:18pm 21 28 mph 988.3mb 37f 34f
3:12pm 21 25 mph 988.1mb 37f 34f
3:06pm 18 24 mph 989.3mb 37f 34f
3:00pm 17 23 mph 989.3mb 37f 34f
2:54pm 23 26 mph 988.7mb 37f 34f
2:48pm 23 26 mph 988.5mb 37f 34f
2:42pm 22 26 mph 989.5mb 37f 34f
2:36pm 22 24 mph 990mb 37f 34f
2:30pm 21 24 mph 991mb 37f 34f
2:24pm 20 23 mph 991mb 37f 34f
2:18pm 18 23 mph 991mb 37f 34f
2:12pm 17 21 mph 990.5mb 37f 34f
2:06pm 18 23 mph 990.4mb 37f 34f
2:00pm 17 22 mph 990.6mb 37f 34f
1:54pm 17 21 mph 991.6mb 37f 34f
1:48pm 20 26 mph 990.8mb 37f 34f
1:42pm 22 25 mph 990.3mb 37f 34f
1:36pm 20 25 mph 990.9mb 37f 34f
1:30pm 21 25 mph 990.5mb 37f 34f
1:24pm 20 25 mph 991.2mb 37f 34f
1:18pm 18 23 mph 992.1mb 37f 34f
1:12pm 20 29 mph 992.2mb 37f 34f
1:06pm 20 25 mph 991.9mb 37f 34f
1:00pm 18 23 mph 991.9mb 37f 34f
12:54pm 18 23 mph 991.8mb 37f 34f
12:48pm 18 24 mph 992.9mb 37f 34f
12:42pm 18 22 mph 993.8mb 37f 34f
12:36pm 14 18 mph 993.8mb 37f 34f
12:30pm 16 20 mph 993.7mb 37f 34f
12:24pm 15 18 mph 994.1mb 37f 34f
12:18pm 16 20 mph 994.8mb 37f 34f
12:06pm 16 18 mph 994.8mb 37f 33f
12:00pm 18 22 mph 995.2mb 37f 33f
11:54am 16 23 mph 995.2mb 37f 33f
11:48am 15 20 mph 995.7mb 37f 33f
11:42am 16 21 mph 996.3mb 37f 33f
11:36am 14 17 mph 996.4mb 37f 33f
11:30am 13 17 mph 996.4mb 37f 33f
11:24am 14 18 mph 996.4mb 37f 33f
11:18am 14 20 mph 996.7mb 37f 33f
11:12am 15 21 mph 997mb 37f 33f
11:06am 14 17 mph 997.5mb 37f 33f
11:00am 14 17 mph 997.9mb 37f 33f
10:54am 14 17 mph 998.2mb 37f 33f
10:48am 15 17 mph 998.7mb 37f 33f
10:42am 15 17 mph 998.9mb 37f 33f
10:36am 13 16 mph 999.7mb 37f 33f
10:30am 13 15 mph 1000.2mb 37f 33f
10:24am 13 16 mph 1000.3mb 37f 33f
10:18am 13 15 mph 1000.4mb 37f 33f
10:12am 13 14 mph 1000.5mb 37f 33f
10:06am 10 11 mph 1000.8mb 37f 33f
10:00am 8 9 mph 1001.4mb 37f 33f
9:54am 7 8 mph 1001.6mb 37f 33f
9:48am 6 8 mph 1001.9mb 37f 33f
9:42am 7 9 mph 1001.7mb 37f 33f
9:36am 8
mph
1001.8mb 37f 33f
9:30am 6 8 mph 1002.5mb 37f 33f
9:24am 6 7 mph 1002.6mb 37f 33f
9:18am 6 8 mph 1002.7mb 37f 33f
9:12am 7 8 mph 1002.6mb 37f 33f
9:06am 7 9 mph 1002.6mb 37f 33f
9:00am 7 10 mph 1002.6mb 37f 33f
8:54am 9 11 mph 1002.4mb 37f 33f
8:48am 8 11 mph 1002.7mb 37f 33f
8:42am 11 15 mph 1002.7mb 37f 33f
8:36am 13 15 mph 1002.7mb 37f 33f
8:30am 14 15 mph 1002.9mb 37f 33f
8:24am 11 15 mph 1003.2mb 37f 33f
8:18am 11 14 mph 1003.6mb 37f 33f
8:12am 11 15 mph 1003.8mb 37f 33f
8:06am 13 15 mph 1003.7mb 37f 33f
8:00am 15 17 mph 1003.9mb 37f 33f
7:54am 14 17 mph 1004.2mb 37f 33f
7:48am 14 16 mph 1004.3mb 37f 33f
7:42am 10 11 mph 1004.9mb 37f 33f
7:36am 7 8 mph 1005.5mb 37f 33f
7:30am 6 7 mph 1005.8mb 37f 33f
7:24am 6 7 mph 1005.9mb 37f 33f
7:18am 6 8 mph 1006mb 37f 33f
7:12am 8
mph
1005.9mb 37f 33f
7:06am 8
mph
1006.2mb 37f 33f
7:00am 6 7 mph 1006.6mb 37f 33f
6:54am 6 7 mph 1006.8mb 37f 33f
6:48am 6
mph
1007.1mb 37f 33f
6:42am 6
mph
1007.2mb 37f 33f
6:36am 5 6 mph 1007.5mb 37f 33f
6:30am 5 6 mph 1007.6mb 37f 33f
6:24am 5 6 mph 1007.7mb 37f 33f
6:18am 5
mph
1007.9mb 37f 33f
6:12am 5 6 mph 1008.2mb 37f 33f
6:06am 5 6 mph 1008.2mb 37f 33f
6:00am 5 6 mph 1008.2mb 37f 33f
5:54am 5 6 mph 1008.4mb 37f 32f
5:48am 6
mph
- 37f -
5:42am 6 7 mph - 37f -
5:36am 7 8 mph - 37f -
5:30am 7 8 mph 1009mb 37f 32f
5:24am 7 8 mph 1009.1mb 37f 32f
5:18am 8 9 mph 1009.4mb 37f 32f
5:12am 8 10 mph 1009.4mb 37f 32f
5:06am 10 13 mph 1009.5mb 37f 32f
5:00am 11 13 mph 1009.5mb 37f 32f
4:54am 10 11 mph 1009.4mb 37f 33f
4:48am 9 10 mph 1009.4mb 37f 33f
4:42am 8 9 mph 1009.4mb 37f 33f
4:36am 9 11 mph 1009.6mb 37f 33f
4:30am 10 13 mph 1009.8mb 37f 33f
4:24am 11 13 mph 1009.9mb 37f 33f
4:18am 11 15 mph 1010.1mb 37f 33f
4:12am 13 15 mph 1010.1mb 37f 34f
4:06am 14 15 mph 1010.2mb 37f 34f
4:00am 11 13 mph 1010.3mb 37f 35f
3:54am 8 9 mph 1010.3mb 37f 35f
3:48am 7 8 mph 1010.3mb 37f 34f
3:42am 8 9 mph 1010.5mb 37f 35f
3:36am 8 9 mph 1010.7mb 37f 35f
3:30am 8 10 mph 1010.8mb 37f 35f
3:24am 8 10 mph 1010.9mb 37f 35f
3:18am 9 11 mph 1011mb 37f 35f
3:12am 10 14 mph 1011.1mb 37f 35f
3:06am 9 14 mph 1011.2mb 37f 35f
3:00am 11 14 mph 1011.3mb 37f 35f
2:54am 11 13 mph 1011.2mb 37f 35f
2:48am 10 15 mph 1011.4mb 37f 35f
2:42am 9 11 mph 1011.4mb 37f 35f
2:36am 9 13 mph 1011.8mb 37f 35f
2:30am 9 11 mph 1012mb 37f 35f
2:24am 8 10 mph 1012.2mb 37f 35f
2:18am 9 11 mph 1012.4mb 37f 35f
2:12am 11 14 mph 1012.3mb 37f 35f
2:06am 9 14 mph 1012.3mb 37f 35f
2:00am 14 15 mph 1012.6mb 37f 35f
1:54am 13 15 mph 1012.8mb 37f 35f
1:48am 14 17 mph 1013mb 37f 35f
1:42am 15 17 mph 1012.9mb 37f 35f
1:36am 14 17 mph 1012.8mb 37f 35f
1:30am 15 20 mph 1012.9mb 37f 35f
1:24am 15 20 mph 1013.1mb 37f 35f
1:18am 16 18 mph 1013.3mb 37f 35f
1:12am 16 20 mph 1013.4mb 37f 35f
1:06am 17 18 mph 1013.6mb 37f 35f
1:00am 17 21 mph 1013.7mb 37f 35f
12:54am 15 18 mph 1013.8mb 37f 34f
12:48am 14 17 mph 1014mb 37f 34f
12:42am 15 17 mph 1014.2mb 37f 34f
12:36am 15 17 mph 1014.2mb 37f 34f
12:30am 14 16 mph 1014.3mb 37f 34f
12:24am 14 16 mph 1014.3mb 37f 34f
12:18am 13 15 mph 1014.3mb 37f 33f
12:12am 10 16 mph 1014.3mb 37f 34f
12:06am 11 13 mph 1014.4mb 37f 33f
12:00am 11 14 mph 1014.3mb 37f 33f
Fri 01/23 11:54pm 13 15 mph 1014.3mb 37f 33f
11:48pm 11 13 mph 1014.3mb 37f 33f
11:42pm 10 13 mph 1014.4mb 37f 33f
11:36pm 10 11 mph 1014.6mb 37f 33f
11:30pm 9 10 mph 1014.7mb 37f 33f
11:18pm 6 9 mph 1014.7mb 37f 33f
11:12pm 8 9 mph 1014.9mb 37f 33f
11:06pm 7 9 mph 1014.9mb 37f 33f
11:00pm 7 8 mph 1015.2mb 37f 33f
10:54pm 6 10 mph 1015.1mb 37f 32f
10:48pm 8 10 mph 1015.4mb 37f 32f
10:42pm 9 11 mph 1015.6mb 37f 32f
10:36pm 10 13 mph 1015.9mb 37f 32f
10:30pm 10 13 mph 1016.1mb 37f 33f
10:24pm 9 14 mph 1016mb 37f 32f
10:18pm  -  mph 1016.1mb 37f 32f
10:12pm  -  mph 1016.2mb 37f 32f
10:06pm  -  mph 1016.4mb 37f 32f
10:00pm 11 14 mph 1016.5mb - 32f
9:54pm 14 16 mph 1016.8mb - 32f
9:48pm 14 16 mph 1016.8mb 37f 32f
9:42pm 15 17 mph 1017mb 37f 32f
9:36pm 13 17 mph 1017mb 37f 32f
9:30pm 14 15 mph 1016.9mb 37f 32f
9:24pm 11 14 mph 1016.7mb 37f 32f
9:18pm 10 13 mph 1016.7mb 37f 32f
9:12pm 10 14 mph 1016.8mb 37f 32f
9:06pm 10 11 mph 1017.1mb 37f 32f
9:00pm 10 13 mph 1017.1mb 37f 32f
8:54pm 9 11 mph 1017.1mb 37f 32f
8:48pm 10 11 mph 1017.3mb 37f -
8:42pm 9 10 mph 1017.5mb 37f -
8:36pm 8 9 mph 1017.6mb 37f -
8:30pm 8 9 mph 1017.6mb 37f 32f
8:24pm 7 9 mph 1017.6mb 37f 32f
8:18pm 7 8 mph 1017.7mb 37f 32f
8:12pm 7 10 mph 1017.8mb 37f 32f
8:06pm 9 11 mph 1018mb 37f 32f
8:00pm 9 14 mph 1018.1mb 37f 32f
7:54pm 10 13 mph 1018.2mb 37f 32f
7:48pm 8 13 mph 1018.2mb 37f 32f
7:42pm 7 8 mph 1018.3mb 37f 32f
7:36pm 8 9 mph 1018.2mb 37f 32f
7:30pm 9 11 mph 1018.4mb 37f 32f
7:24pm 10 14 mph 1018.5mb 37f 32f
7:18pm 10 14 mph 1018.6mb 37f 32f
7:12pm 10 14 mph 1018.7mb 37f 32f
7:06pm 13 16 mph 1018.8mb 37f 32f
7:00pm 13 15 mph 1019mb 37f 32f
6:54pm 14 17 mph 1019mb 37f 32f
6:48pm 13 16 mph 1019mb 37f 32f
6:42pm 14 17 mph 1019mb 37f 32f
6:36pm 14 16 mph 1019mb 37f 32f
6:30pm 13 15 mph 1018.8mb 37f 32f
6:24pm 13 14 mph 1018.7mb 37f 32f
6:18pm 13 16 mph 1018.6mb 37f 32f
6:12pm 14 17 mph 1018.5mb 37f 33f
6:06pm 14 16 mph 1018.6mb 37f 33f
6:00pm 13 17 mph 1018.5mb 37f 33f
5:54pm 14 17 mph 1018.6mb 37f 33f
5:48pm 15 18 mph 1018.8mb 37f 33f
5:42pm 16 20 mph 1018.9mb 37f 33f
5:36pm 16 18 mph 1018.8mb 37f 33f
5:30pm 16 18 mph 1018.8mb 37f 33f
5:24pm 15 20 mph 1018.7mb 37f 33f
5:18pm 18 21 mph 1018.7mb 37f 33f
5:12pm 15 20 mph 1018.7mb 37f 34f
5:06pm 16 18 mph 1018.8mb 37f 34f
5:00pm 16 18 mph 1018.8mb 37f 34f
4:54pm 13 16 mph 1018.6mb 37f 34f
4:48pm 15 20 mph 1018.6mb 37f 34f
4:42pm 16 20 mph 1018.7mb 37f 34f
4:36pm 20 22 mph 1018.9mb 37f 35f
4:30pm 20 23 mph 1018.9mb 37f 35f
4:24pm 20 21 mph 1018.9mb 37f 35f
4:18pm 20 22 mph 1018.8mb 37f 35f
4:12pm 20 22 mph 1018.8mb 37f 35f
4:06pm 18 21 mph 1019.1mb 37f 36f
4:00pm 20 23 mph 1019mb 37f 36f
3:54pm 17 21 mph 1019.2mb 37f 36f
3:48pm 15 20 mph 1019.3mb 37f 37f
3:42pm 17 21 mph 1019.2mb 37f 37f
3:36pm 18 20 mph 1019.2mb 37f 36f
3:30pm 17 18 mph 1019.5mb 37f 37f
3:24pm 7 13 mph 1019.5mb 37f 39f
3:18pm 9 11 mph 1019.5mb 37f 37f
3:12pm 8 13 mph 1019.7mb 37f 38f
3:06pm 10 14 mph 1019.9mb 37f 38f
3:00pm 9 13 mph 1019.9mb 37f 38f
2:54pm 11 14 mph 1020mb 37f 37f
2:48pm 11 14 mph 1020mb 37f 37f
2:42pm 11 13 mph 1020.1mb 37f 37f
2:36pm 10 11 mph 1020.1mb 37f 37f
2:30pm 8 10 mph 1020mb 37f 36f
2:24pm 8 11 mph 1020mb 37f 35f
2:18pm 7 9 mph 1020.1mb 37f 35f
2:12pm 8 11 mph 1020.1mb 37f 35f
2:06pm 10 11 mph 1020.3mb 37f 34f
2:00pm 9 14 mph 1020.3mb 37f 35f
1:54pm 9 10 mph 1020.3mb 37f 34f
1:48pm 7 11 mph 1020.4mb 37f 35f
1:42pm 8 10 mph 1020.5mb 37f 36f
1:36pm 8 11 mph 1020.7mb 37f 35f
1:30pm 11 14 mph 1020.8mb 37f 35f
1:18pm 9 14 mph 1021.1mb 37f 35f
1:12pm 9 14 mph 1021.3mb 37f 34f
1:06pm 9 13 mph 1021.4mb 37f 34f
1:00pm 11 14 mph 1021.5mb 37f 34f
12:54pm 6 10 mph 1021.7mb 37f 34f
12:48pm 6 9 mph 1021.9mb 37f 34f
12:42pm 3 7 mph 1022mb 37f 35f
12:36pm 1 6 mph 1022.1mb 37f 36f
12:30pm 3 7 mph 1022.3mb 37f 34f
12:24pm 6 7 mph 1022.4mb 37f 33f
12:18pm 3 9 mph 1022.5mb 37f 34f
12:12pm 6 9 mph 1022.6mb 37f 33f
12:06pm 6 8 mph 1022.7mb 37f 33f
12:00pm 7 8 mph 1023mb 37f 33f
11:54am 2 9 mph 1023.1mb 37f 33f
11:48am 6 9 mph 1023.3mb 37f 32f
11:42am 7 8 mph 1023.3mb 37f 32f
11:36am 5 7 mph 1023.4mb 37f 32f
11:30am 5 9 mph 1023.6mb 37f 32f
11:24am 8 9 mph 1023.8mb 37f 32f
11:18am 6 7 mph 1023.9mb 37f 32f
11:12am 2 5 mph 1024.1mb 37f 35f
11:06am 2 6 mph 1024.3mb 36f 32f
11:00am 6
mph
- - 31f
10:54am 6
mph
- - 31f
10:48am 5 6 mph 1024.7mb 36f 31f
10:42am 2 5 mph 1024.7mb 36f 33f
10:36am 3 5 mph 1024.8mb 36f 31f
10:30am 1 3 mph 1024.9mb 36f 34f
10:24am 2 5 mph 1024.9mb 36f 32f
10:18am 5 6 mph 1025mb 36f 30f
10:12am 6 7 mph 1025.1mb 36f 29f
10:06am 5 7 mph 1025.2mb 37f 29f
10:00am 5 7 mph 1025.3mb 37f 29f
9:54am 6 7 mph 1025.4mb 37f 29f
9:48am  -  mph - - 28f
9:42am  -  mph - - 28f
9:36am  -  mph - - 28f
9:30am 6 9 mph 1025.6mb 37f 28f
9:24am 8 9 mph 1025.6mb 37f 27f
9:18am 8 10 mph 1025.5mb 37f 27f
9:12am 9 11 mph 1025.7mb 37f 27f
9:06am 10 11 mph 1025.7mb 37f 27f
9:00am 11 13 mph 1025.7mb 36f 26f
8:54am 8 10 mph 1025.8mb 36f 26f